Location: Castellar de la Frontera
(36.3200°N, 5.4500°W)
Time: 06:19:29
(UTC+02:00)

ISS - Pass Details

Date: 18 July 2018
Orbit: 402 x 408 km, 51.6° (Epoch: 23 July)

Event Time Altitude Azimuth Distance (km) Brightness Sun altitude
Rises 05:33:41 0° 324° (NW) 2,330 0.1 -17.8°
Reaches altitude 10° 05:36:33 10° 351° (N) 1,468 -0.5 -17.4°
Maximum altitude 05:38:23 14° 25° (NNE) 1,247 -0.4 -17.1°
Drops below altitude 10° 05:40:13 10° 59° (ENE) 1,467 0.2 -16.9°
Sets 05:43:04 0° 86° (E) 2,325 0.9 -16.4°
